When you browse on this site, cookies collect data to enhance your experience and personalize the content and advertising you see.
Visit our Privacy Policy to learn more. By continuing to use the site, you agree to this use of cookies and data.
  • En España
  • Lista de países
  • Para 7 días
  • Temperatura del agua
  • Mapa Satelital
  • El tiempo en el mapa
  • Informadores
  • user-avatar
    Iniciar sesión

    Tiempo cada hora San Juan

    Hoy, 13 Diciembre, Jueves

    Tiempo Temperatura Precipitaciones Viento Presión Humedad
    00:00 +26°C° 0 mm 2 mps 701 mmHg 44%
    01:00 +26°C° 0 mm 1 mps 701 mmHg 45%
    02:00 +26°C° 0 mm 1 mps 701 mmHg 46%
    03:00 +26°C° 0 mm 1 mps 700 mmHg 46%
    04:00 +25°C° 0 mm 1 mps 700 mmHg 47%
    05:00 +27°C° 0 mm 2 mps 700 mmHg 46%
    06:00 +28°C° 0 mm 3 mps 700 mmHg 45%
    07:00 +29°C° 0 mm 3 mps 700 mmHg 44%
    08:00 +32°C° 0 mm 4 mps 700 mmHg 36%
    09:00 +34°C° 0 mm 5 mps 700 mmHg 29%
    10:00 +36°C° 0 mm 6 mps 700 mmHg 22%
    11:00 +39°C° 0 mm 7 mps 699 mmHg 17%
    12:00 +41°C° 0 mm 8 mps 699 mmHg 13%
    13:00 +43°C° 0 mm 8 mps 698 mmHg 9%
    14:00 +43°C° 0 mm 10 mps 698 mmHg 7%
    15:00 +43°C° 0 mm 11 mps 698 mmHg 6%
    16:00 +43°C° 0 mm 13 mps 698 mmHg 5%
    17:00 +42°C° 0 mm 11 mps 698 mmHg 5%
    18:00 +39°C° 0 mm 10 mps 699 mmHg 6%
    19:00 +37°C° 0 mm 9 mps 699 mmHg 7%
    20:00 +35°C° 0 mm 8 mps 700 mmHg 7%
    21:00 +34°C° 0 mm 6 mps 700 mmHg 7%
    22:00 +32°C° 0 mm 5 mps 700 mmHg 7%
    23:00 +30°C° 0 mm 5 mps 700 mmHg 11%

    Mañana, 14 Diciembre, Viernes

    Tiempo Temperatura Precipitaciones Viento Presión Humedad
    00:00 +29°C° 0 mm 5 mps 700 mmHg 15%
    01:00 +28°C° 0 mm 5 mps 700 mmHg 19%
    02:00 +27°C° 0 mm 7 mps 701 mmHg 30%
    03:00 +26°C° 0 mm 8 mps 702 mmHg 42%
    04:00 +24°C° 0 mm 10 mps 702 mmHg 53%
    05:00 +24°C° 0 mm 9 mps 703 mmHg 49%
    06:00 +24°C° 0 mm 9 mps 704 mmHg 44%
    07:00 +24°C° 0 mm 8 mps 705 mmHg 40%
    08:00 +26°C° 0 mm 7 mps 705 mmHg 34%
    09:00 +27°C° 0 mm 6 mps 705 mmHg 28%
    10:00 +28°C° 0 mm 5 mps 705 mmHg 21%
    11:00 +29°C° 0 mm 5 mps 704 mmHg 19%
    12:00 +30°C° 0 mm 5 mps 704 mmHg 17%
    13:00 +32°C° 0 mm 5 mps 704 mmHg 15%
    14:00 +32°C° 0 mm 5 mps 704 mmHg 15%
    15:00 +32°C° 0 mm 6 mps 704 mmHg 15%
    16:00 +32°C° 0 mm 6 mps 704 mmHg 15%
    17:00 +32°C° 0 mm 6 mps 704 mmHg 17%
    18:00 +30°C° 0 mm 5 mps 705 mmHg 19%
    19:00 +29°C° 0 mm 5 mps 706 mmHg 21%
    20:00 +28°C° 0 mm 5 mps 707 mmHg 21%
    21:00 +28°C° 0 mm 4 mps 707 mmHg 22%
    22:00 +27°C° 0 mm 4 mps 708 mmHg 23%
    23:00 +26°C° 0 mm 3 mps 708 mmHg 25%

    Pasado mañana, 15 Diciembre, Sábado

    Tiempo Temperatura Precipitaciones Viento Presión Humedad
    00:00 +26°C° 0 mm 3 mps 707 mmHg 26%
    01:00 +25°C° 0 mm 2 mps 707 mmHg 28%
    02:00 +25°C° 0 mm 2 mps 707 mmHg 30%
    03:00 +24°C° 0 mm 1 mps 706 mmHg 32%
    04:00 +23°C° 0 mm 1 mps 706 mmHg 34%
    05:00 +25°C° 0 mm 1 mps 707 mmHg 32%
    06:00 +26°C° 0 mm 2 mps 707 mmHg 30%
    07:00 +27°C° 0 mm 2 mps 707 mmHg 28%
    08:00 +28°C° 0 mm 2 mps 707 mmHg 27%
    09:00 +29°C° 0 mm 3 mps 707 mmHg 27%
    10:00 +31°C° 0 mm 3 mps 707 mmHg 26%
    11:00 +33°C° 0 mm 4 mps 706 mmHg 25%
    12:00 +34°C° 0 mm 4 mps 705 mmHg 23%
    13:00 +35°C° 0 mm 4 mps 704 mmHg 21%
    14:00 +35°C° 0 mm 4 mps 704 mmHg 20%
    15:00 +35°C° 0 mm 4 mps 703 mmHg 20%
    16:00 +35°C° 0 mm 4 mps 703 mmHg 19%
    17:00 +34°C° 0 mm 4 mps 703 mmHg 20%
    18:00 +33°C° 0 mm 4 mps 704 mmHg 21%
    19:00 +32°C° 0 mm 4 mps 704 mmHg 21%
    20:00 +32°C° 0 mm 4 mps 704 mmHg 23%
    21:00 +30°C° 0 mm 4 mps 705 mmHg 25%
    22:00 +29°C° 0 mm 4 mps 705 mmHg 26%
    23:00 +29°C° 0 mm 4 mps 705 mmHg 30%

    16 Diciembre, Domingo

    Tiempo Temperatura Precipitaciones Viento Presión Humedad
    00:00 +28°C° 0 mm 4 mps 704 mmHg 33%
    01:00 +27°C° 0 mm 4 mps 704 mmHg 37%
    02:00 +27°C° 0 mm 3 mps 704 mmHg 39%
    03:00 +27°C° 0 mm 3 mps 704 mmHg 41%
    04:00 +26°C° 0 mm 3 mps 704 mmHg 43%
    05:00 +27°C° 0 mm 3 mps 704 mmHg 39%
    06:00 +29°C° 0 mm 3 mps 704 mmHg 35%
    07:00 +30°C° 0 mm 2 mps 705 mmHg 32%
    08:00 +31°C° 0 mm 2 mps 705 mmHg 29%
    09:00 +32°C° 0 mm 2 mps 704 mmHg 26%
    10:00 +34°C° 0 mm 2 mps 704 mmHg 23%
    11:00 +36°C° 0 mm 2 mps 704 mmHg 21%
    12:00 +37°C° 0 mm 3 mps 703 mmHg 18%
    13:00 +38°C° 0 mm 3 mps 702 mmHg 15%
    14:00 +38°C° 0 mm 4 mps 702 mmHg 15%
    15:00 +38°C° 0 mm 4 mps 702 mmHg 14%
    16:00 +40°C° 0 mm 4 mps 701 mmHg 14%
    17:00 +38°C° 0.1 mm 3 mps 702 mmHg 16%
    18:00 +37°C° 0.1 mm 3 mps 702 mmHg 18%
    19:00 +35°C° 0.1 mm 2 mps 703 mmHg 20%
    20:00 +35°C° 0.1 mm 3 mps 703 mmHg 23%
    21:00 +34°C° 0.1 mm 3 mps 703 mmHg 26%
    22:00 +33°C° 0.1 mm 3 mps 704 mmHg 29%
    23:00 +31°C° 0 mm 2 mps 703 mmHg 33%

    17 Diciembre, Lunes

    Tiempo Temperatura Precipitaciones Viento Presión Humedad
    00:00 +31°C° 0 mm 2 mps 703 mmHg 36%
    01:00 +30°C° 0 mm 1 mps 703 mmHg 40%
    02:00 +29°C° 0.1 mm 4 mps 703 mmHg 43%
    03:00 +27°C° 0.1 mm 6 mps 703 mmHg 45%
    04:00 +26°C° 0.1 mm 9 mps 704 mmHg 48%
    05:00 +24°C° 0.1 mm 9 mps 704 mmHg 50%
    06:00 +24°C° 0.1 mm 9 mps 705 mmHg 52%
    07:00 +23°C° 0.1 mm 9 mps 706 mmHg 54%
    08:00 +24°C° 0 mm 9 mps 706 mmHg 49%
    09:00 +27°C° 0 mm 8 mps 706 mmHg 45%
    10:00 +28°C° 0 mm 8 mps 706 mmHg 41%
    11:00 +29°C° 0 mm 8 mps 706 mmHg 39%
    12:00 +31°C° 0 mm 8 mps 705 mmHg 37%
    13:00 +32°C° 0 mm 8 mps 705 mmHg 35%
    14:00 +31°C° 0 mm 8 mps 705 mmHg 35%
    15:00 +31°C° 0 mm 8 mps 704 mmHg 36%
    16:00 +31°C° 0 mm 8 mps 704 mmHg 36%
    17:00 +29°C° 0 mm 7 mps 705 mmHg 39%
    18:00 +29°C° 0 mm 7 mps 705 mmHg 42%
    19:00 +28°C° 0 mm 6 mps 706 mmHg 46%
    20:00 +27°C° 0.4 mm 6 mps 706 mmHg 48%
    21:00 +27°C° 0.4 mm 6 mps 707 mmHg 50%
    22:00 +26°C° 0.4 mm 5 mps 707 mmHg 53%
    23:00 +25°C° 0.6 mm 5 mps 707 mmHg 56%

    18 Diciembre, Martes

    Tiempo Temperatura Precipitaciones Viento Presión Humedad
    00:00 +25°C° 0.6 mm 5 mps 707 mmHg 59%
    01:00 +23°C° 0.6 mm 5 mps 706 mmHg 62%
    02:00 +23°C° 0.1 mm 4 mps 707 mmHg 63%
    03:00 +23°C° 0.1 mm 4 mps 707 mmHg 65%
    04:00 +22°C° 0.1 mm 3 mps 707 mmHg 67%
    05:00 +23°C° 0 mm 4 mps 707 mmHg 64%
    06:00 +23°C° 0 mm 4 mps 707 mmHg 62%
    07:00 +23°C° 0 mm 4 mps 708 mmHg 59%
    08:00 +26°C° 0 mm 4 mps 707 mmHg 54%
    09:00 +27°C° 0 mm 4 mps 707 mmHg 50%
    10:00 +28°C° 0 mm 3 mps 707 mmHg 45%
    11:00 +29°C° 0.2 mm 3 mps 706 mmHg 42%
    12:00 +30°C° 0.2 mm 2 mps 705 mmHg 38%
    13:00 +31°C° 0.2 mm 2 mps 704 mmHg 34%
    14:00 +31°C° 0.5 mm 2 mps 704 mmHg 33%
    15:00 +31°C° 0.5 mm 2 mps 704 mmHg 32%
    16:00 +32°C° 0.5 mm 2 mps 703 mmHg 31%
    17:00 +31°C° 1 mm 2 mps 704 mmHg 33%
    18:00 +30°C° 1 mm 2 mps 704 mmHg 35%
    19:00 +30°C° 1 mm 2 mps 704 mmHg 37%
    20:00 +29°C° 0.4 mm 2 mps 705 mmHg 37%
    21:00 +29°C° 0.4 mm 2 mps 705 mmHg 38%
    22:00 +29°C° 0.4 mm 2 mps 705 mmHg 38%
    23:00 +28°C° 0 mm 2 mps 705 mmHg 40%
    Mostrar más